WJA747 CYXU-CYYC

Flight info

Callsign WJA747
Flight time N/A
Altitude 38000
Route HOCKE DCT GRB DCT KP12C DCT ISN/N0449F400 DCT BEVEL DCT VESDO EBGAL7
Aircraft B737/M-SDE2E3FGHIRWXY/LB1

Departure

Time 2026-05-09 02:25
Airport London International Airport (CYXU)

Arrival

Time N/A
Airport Calgary International Airport (CYYC)
Time Latitude Longitude Altitude Speed Heading
2026-05-09 01:57 43.02944 -81.14908 907 ft 0 kts 193°
2026-05-09 02:15 43.02964 -81.14902 910 ft 4 kts 193°
2026-05-09 02:15 43.02990 -81.14893 907 ft 3 kts 193°
2026-05-09 02:16 43.03009 -81.14885 910 ft 4 kts 228°
2026-05-09 02:16 43.03013 -81.14863 907 ft 4 kts 311°
2026-05-09 02:16 43.02997 -81.14841 914 ft 1 kts 319°
2026-05-09 02:16 43.02996 -81.14841 907 ft 0 kts 319°
2026-05-09 02:19 43.02998 -81.14843 914 ft 1 kts 319°
2026-05-09 02:19 43.03011 -81.14859 909 ft 4 kts 319°
2026-05-09 02:20 43.03043 -81.14897 907 ft 8 kts 319°
2026-05-09 02:20 43.03094 -81.14958 907 ft 12 kts 319°
2026-05-09 02:20 43.03164 -81.15042 907 ft 15 kts 319°
2026-05-09 02:20 43.03245 -81.15140 907 ft 16 kts 319°
2026-05-09 02:21 43.03335 -81.15248 909 ft 18 kts 319°
2026-05-09 02:21 43.03426 -81.15356 907 ft 17 kts 318°
2026-05-09 02:21 43.03512 -81.15461 907 ft 16 kts 319°
2026-05-09 02:21 43.03595 -81.15560 907 ft 16 kts 319°
2026-05-09 02:22 43.03676 -81.15657 907 ft 15 kts 319°
2026-05-09 02:22 43.03757 -81.15755 907 ft 16 kts 319°
2026-05-09 02:22 43.03841 -81.15856 907 ft 17 kts 319°
2026-05-09 02:22 43.03931 -81.15965 907 ft 17 kts 318°
2026-05-09 02:23 43.04016 -81.16011 907 ft 9 kts
2026-05-09 02:23 43.04045 -81.16009 908 ft 0 kts
2026-05-09 02:24 43.04055 -81.16008 908 ft 6 kts
2026-05-09 02:24 43.04104 -81.15988 908 ft 9 kts 33°
2026-05-09 02:24 43.04139 -81.15914 909 ft 8 kts 100°
2026-05-09 02:24 43.04105 -81.15858 908 ft 8 kts 139°
2026-05-09 02:25 43.04014 -81.15749 908 ft 45 kts 139°
2026-05-09 02:25 43.03576 -81.15222 909 ft 118 kts 138°
2026-05-09 02:25 43.02827 -81.14321 1012 ft 163 kts 139°
2026-05-09 02:25 43.01962 -81.13279 1808 ft 165 kts 141°
2026-05-09 02:26 43.01080 -81.12311 2710 ft 165 kts 147°
2026-05-09 02:26 43.00104 -81.11316 3199 ft 191 kts 146°
2026-05-09 02:26 42.98954 -81.10141 3484 ft 221 kts 146°
2026-05-09 02:26 42.97664 -81.08786 3832 ft 248 kts 145°
2026-05-09 02:27 42.96252 -81.07306 3930 ft 259 kts 149°
2026-05-09 02:27 42.94572 -81.06666 4564 ft 258 kts 186°
2026-05-09 02:27 42.92889 -81.07406 5580 ft 256 kts 214°
2026-05-09 02:27 42.91629 -81.09110 6542 ft 258 kts 240°
2026-05-09 02:28 42.91089 -81.11417 7563 ft 256 kts 266°
2026-05-09 02:28 42.91309 -81.13808 8643 ft 255 kts 282°
2026-05-09 02:28 42.91811 -81.16146 9665 ft 257 kts 284°
2026-05-09 02:28 42.92354 -81.18464 10476 ft 263 kts 285°
2026-05-09 02:29 42.92945 -81.20964 10730 ft 290 kts 285°
2026-05-09 02:29 42.93587 -81.23700 10942 ft 315 kts 285°
2026-05-09 02:29 42.94277 -81.26657 11308 ft 333 kts 285°
2026-05-09 02:29 42.94985 -81.29708 11976 ft 340 kts 285°
2026-05-09 02:30 42.95705 -81.32821 12779 ft 345 kts 285°
2026-05-09 02:30 42.96418 -81.35927 13632 ft 347 kts 285°
2026-05-09 02:30 42.97141 -81.39088 14413 ft 351 kts 285°
2026-05-09 02:30 42.97868 -81.42282 15249 ft 353 kts 285°
2026-05-09 02:31 42.98596 -81.45488 16077 ft 355 kts 285°
2026-05-09 02:31 42.99361 -81.48871 16908 ft 358 kts 285°
2026-05-09 02:31 43.00066 -81.51990 17644 ft 361 kts 285°
2026-05-09 02:31 43.00809 -81.55285 18388 ft 365 kts 285°
2026-05-09 02:32 43.01559 -81.58618 19075 ft 366 kts 285°
2026-05-09 02:32 43.02308 -81.61950 19808 ft 367 kts 285°
2026-05-09 02:32 43.03058 -81.65295 20511 ft 368 kts 285°
2026-05-09 02:32 43.03801 -81.68610 21159 ft 371 kts 285°
2026-05-09 02:33 43.04558 -81.71995 21787 ft 374 kts 285°
2026-05-09 02:33 43.05320 -81.75406 22432 ft 376 kts 285°
2026-05-09 02:33 43.06085 -81.78839 23070 ft 378 kts 285°
2026-05-09 02:33 43.06845 -81.82252 23635 ft 379 kts 285°
2026-05-09 02:34 43.07614 -81.85715 24177 ft 380 kts 285°
2026-05-09 02:34 43.08383 -81.89178 24758 ft 379 kts 285°
2026-05-09 02:34 43.09150 -81.92638 25309 ft 379 kts 284°
2026-05-09 02:34 43.09914 -81.96092 25818 ft 380 kts 284°
2026-05-09 02:35 43.10678 -81.99553 26331 ft 381 kts 284°
2026-05-09 02:35 43.11445 -82.03035 26806 ft 381 kts 284°
2026-05-09 02:35 43.12213 -82.06522 27271 ft 382 kts 284°
2026-05-09 02:35 43.12969 -82.09964 27734 ft 383 kts 284°
2026-05-09 02:36 43.13738 -82.13471 28171 ft 383 kts 284°
2026-05-09 02:36 43.14506 -82.16976 28610 ft 384 kts 283°
2026-05-09 02:36 43.15270 -82.20467 29182 ft 381 kts 283°
2026-05-09 02:36 43.16026 -82.23926 29876 ft 375 kts 283°
2026-05-09 02:37 43.16771 -82.27336 30492 ft 370 kts 283°
2026-05-09 02:37 43.17503 -82.30701 30993 ft 368 kts 283°
2026-05-09 02:37 43.18225 -82.34027 31320 ft 369 kts 283°
2026-05-09 02:37 43.18957 -82.37407 31668 ft 370 kts 283°
2026-05-09 02:38 43.19686 -82.40777 32052 ft 368 kts 283°
2026-05-09 02:38 43.20415 -82.44145 32415 ft 368 kts 283°
2026-05-09 02:38 43.21142 -82.47514 32797 ft 367 kts 283°
2026-05-09 02:38 43.21865 -82.50869 33210 ft 365 kts 283°
2026-05-09 02:39 43.22583 -82.54206 33607 ft 364 kts 282°
2026-05-09 02:39 43.23300 -82.57543 33924 ft 363 kts 282°
2026-05-09 02:39 43.24005 -82.60828 34141 ft 365 kts 282°
2026-05-09 02:39 43.24725 -82.64192 34302 ft 367 kts 283°
2026-05-09 02:40 43.25446 -82.67566 34480 ft 369 kts 283°
2026-05-09 02:40 43.26177 -82.70968 34663 ft 371 kts 283°
2026-05-09 02:40 43.27006 -82.74330 34864 ft 374 kts 285°
2026-05-09 02:40 43.27879 -82.77655 35039 ft 376 kts 286°
2026-05-09 02:41 43.28784 -82.81038 35196 ft 378 kts 286°
2026-05-09 02:41 43.30304 -82.86717 35481 ft 381 kts 286°
2026-05-09 02:41 43.31215 -82.90140 35664 ft 382 kts 286°
2026-05-09 02:42 43.32131 -82.93596 35854 ft 383 kts 286°
2026-05-09 02:42 43.33029 -82.97004 36023 ft 385 kts 286°
2026-05-09 02:42 43.33940 -83.00469 36195 ft 386 kts 286°
2026-05-09 02:42 43.34852 -83.03950 36362 ft 388 kts 286°
2026-05-09 02:43 43.35768 -83.07451 36545 ft 389 kts 286°
2026-05-09 02:43 43.36684 -83.10958 36711 ft 390 kts 286°
2026-05-09 02:43 43.37603 -83.14485 36863 ft 392 kts 286°
2026-05-09 02:43 43.38514 -83.17988 36969 ft 395 kts 286°
2026-05-09 02:44 43.39442 -83.21560 37077 ft 397 kts 286°
2026-05-09 02:44 43.40370 -83.25136 37261 ft 397 kts 286°
2026-05-09 02:44 43.41302 -83.28729 37437 ft 398 kts 286°
2026-05-09 02:44 43.42233 -83.32329 37583 ft 399 kts 286°
2026-05-09 02:45 43.43152 -83.35886 37732 ft 400 kts 286°
2026-05-09 02:45 43.45024 -83.43154 37810 ft 406 kts 287°
2026-05-09 02:46 43.46910 -83.50491 37816 ft 404 kts 287°
2026-05-09 02:46 43.48776 -83.57771 37826 ft 402 kts 286°
2026-05-09 02:47 43.50622 -83.65001 37818 ft 401 kts 286°
2026-05-09 02:47 43.52474 -83.72276 37815 ft 400 kts 286°
2026-05-09 02:48 43.54312 -83.79524 37804 ft 400 kts 286°
2026-05-09 02:48 43.56141 -83.86752 37812 ft 400 kts 286°
2026-05-09 02:49 43.57975 -83.94027 37813 ft 401 kts 286°
2026-05-09 02:49 43.59796 -84.01272 37810 ft 402 kts 286°
2026-05-09 02:50 43.61630 -84.08590 37811 ft 404 kts 286°
2026-05-09 02:50 43.63464 -84.15931 37798 ft 405 kts 286°
2026-05-09 02:51 43.65296 -84.23289 37812 ft 405 kts 286°
2026-05-09 02:51 43.67116 -84.30622 37806 ft 406 kts 286°
2026-05-09 02:52 43.68945 -84.38011 37802 ft 406 kts 286°
2026-05-09 02:52 43.70779 -84.45447 37811 ft 408 kts 286°
2026-05-09 02:53 43.72595 -84.52837 37804 ft 408 kts 286°
2026-05-09 02:53 43.74420 -84.60284 37804 ft 409 kts 286°
2026-05-09 02:54 43.76241 -84.67738 37811 ft 409 kts 286°
2026-05-09 02:54 43.78056 -84.75194 37803 ft 408 kts 286°
2026-05-09 02:55 43.79855 -84.82605 37799 ft 408 kts 286°
2026-05-09 02:55 43.81661 -84.90072 37800 ft 408 kts 286°
2026-05-09 02:56 43.83449 -84.97491 37793 ft 407 kts 286°
2026-05-09 02:56 43.85242 -85.04952 37791 ft 407 kts 286°
2026-05-09 02:57 43.87016 -85.12359 37787 ft 407 kts 286°
2026-05-09 02:57 43.88796 -85.19819 37791 ft 407 kts 286°
2026-05-09 02:58 43.90576 -85.27300 37785 ft 407 kts 286°
2026-05-09 02:58 43.92334 -85.34715 37788 ft 407 kts 286°
2026-05-09 02:59 43.94105 -85.42208 37818 ft 408 kts 286°
2026-05-09 02:59 43.95872 -85.49712 37793 ft 408 kts 286°
2026-05-09 03:00 43.97624 -85.57177 37781 ft 408 kts 286°
2026-05-09 03:00 43.99372 -85.64649 37781 ft 408 kts 286°
2026-05-09 03:01 44.01124 -85.72164 37775 ft 408 kts 286°
2026-05-09 03:01 44.02871 -85.79683 37763 ft 408 kts 286°
2026-05-09 03:02 44.04601 -85.87154 37769 ft 408 kts 286°
2026-05-09 03:02 44.06336 -85.94669 37766 ft 407 kts 286°
2026-05-09 03:03 44.08057 -86.02153 37764 ft 407 kts 286°
2026-05-09 03:03 44.09782 -86.09682 37761 ft 407 kts 285°
2026-05-09 03:04 44.11500 -86.17201 37769 ft 407 kts 285°
2026-05-09 03:04 44.13203 -86.24683 37766 ft 408 kts 285°
2026-05-09 03:05 44.14914 -86.32227 37754 ft 408 kts 285°
2026-05-09 03:05 44.16619 -86.39771 37757 ft 408 kts 285°
2026-05-09 03:06 44.18314 -86.47294 37760 ft 409 kts 285°
2026-05-09 03:06 44.20015 -86.54873 37757 ft 410 kts 285°
2026-05-09 03:07 44.21718 -86.62487 37750 ft 411 kts 285°
2026-05-09 03:07 44.23408 -86.70068 37752 ft 411 kts 285°
2026-05-09 03:08 44.25104 -86.77707 37754 ft 411 kts 285°
2026-05-09 03:08 44.26790 -86.85323 37750 ft 412 kts 285°
2026-05-09 03:09 44.28475 -86.92966 37748 ft 412 kts 285°
2026-05-09 03:09 44.30147 -87.00573 37747 ft 412 kts 285°
2026-05-09 03:10 44.31901 -87.08589 37746 ft 411 kts 285°
2026-05-09 03:10 44.35235 -87.23900 37739 ft 411 kts 285°
2026-05-09 03:11 44.38522 -87.39112 37724 ft 411 kts 285°
2026-05-09 03:11 44.41812 -87.54447 37721 ft 412 kts 285°
2026-05-09 03:12 44.45078 -87.69782 37714 ft 413 kts 285°
2026-05-09 03:12 44.48355 -87.85286 37713 ft 415 kts 285°
2026-05-09 03:13 44.53257 -88.08694 37690 ft 418 kts 285°
2026-05-09 03:13 44.55827 -88.20766 37698 ft 420 kts 289°
2026-05-09 03:14 44.60350 -88.35655 37708 ft 422 kts 291°
2026-05-09 03:14 44.65000 -88.50873 37686 ft 423 kts 291°
2026-05-09 03:15 44.69573 -88.66113 37707 ft 422 kts 291°
2026-05-09 03:15 44.74085 -88.81248 37710 ft 422 kts 291°
2026-05-09 03:16 44.78610 -88.96512 37701 ft 421 kts 291°
2026-05-09 03:16 44.83080 -89.11685 37694 ft 421 kts 291°
2026-05-09 03:17 44.87557 -89.26973 37678 ft 420 kts 291°
2026-05-09 03:17 44.92006 -89.42259 37689 ft 420 kts 291°
2026-05-09 03:18 44.96401 -89.57454 37682 ft 420 kts 291°
2026-05-09 03:18 45.00793 -89.72730 37689 ft 420 kts 291°
2026-05-09 03:19 45.05178 -89.88079 37684 ft 420 kts 291°
2026-05-09 03:19 45.09515 -90.03350 37674 ft 420 kts 291°
2026-05-09 03:20 45.13872 -90.18791 37673 ft 420 kts 291°
2026-05-09 03:20 45.18166 -90.34104 37663 ft 420 kts 291°
2026-05-09 03:21 45.22466 -90.49538 37666 ft 420 kts 291°
2026-05-09 03:21 45.26715 -90.64883 37666 ft 420 kts 291°
2026-05-09 03:22 45.30970 -90.80348 37646 ft 419 kts 291°
2026-05-09 03:22 45.35165 -90.95694 37671 ft 419 kts 291°
2026-05-09 03:23 45.39376 -91.11197 37693 ft 419 kts 291°
2026-05-09 03:23 45.43538 -91.26618 37664 ft 417 kts 291°
2026-05-09 03:24 45.47687 -91.42092 37662 ft 416 kts 291°
2026-05-09 03:24 45.51773 -91.57431 37661 ft 415 kts 291°
2026-05-09 03:25 45.55851 -91.72839 37668 ft 414 kts 291°
2026-05-09 03:25 45.59902 -91.88242 37671 ft 413 kts 291°
2026-05-09 03:26 45.63894 -92.03526 37675 ft 412 kts 291°
2026-05-09 03:26 45.67896 -92.18946 37669 ft 412 kts 291°
2026-05-09 03:27 45.71837 -92.34233 37684 ft 412 kts 291°
2026-05-09 03:27 45.75787 -92.49659 37704 ft 411 kts 291°
2026-05-09 03:28 45.79686 -92.64981 37676 ft 411 kts 291°
2026-05-09 03:28 45.83579 -92.80388 37674 ft 410 kts 291°